Location: Wojcin
(51.3330°N, 20.0330°E)
Time: 10:51:35
(UTC+01:00)

ISS - Visible Passes

Search period start: 29 November 2023 00:00
Search period end: 09 December 2023 00:00
Orbit: 416 x 418 km, 51.6° (Epoch: 29 November)

Date Brightness Start Highest point End Pass type
(mag) Time Alt. Az. Time Alt. Az. Time Alt. Az.
29 Nov -3.8 16:41:55 10° W 16:45:18 85° N 16:48:06 14° E visible
29 Nov -2.1 18:18:43 10° W 18:21:00 34° WSW 18:21:00 34° WSW visible
30 Nov -3.4 17:30:21 10° W 17:33:41 61° SSW 17:34:46 37° SE visible
30 Nov -0.2 19:07:39 10° W 19:07:42 10° W 19:07:42 10° W visible
01 Dec -3.6 16:41:58 10° W 16:45:20 77° SSW 16:48:37 10° ESE visible
01 Dec -1.7 18:18:57 10° W 18:21:32 25° SW 18:21:32 25° SW visible
02 Dec -2.3 17:30:23 10° W 17:33:29 35° SSW 17:35:29 18° SSE visible
03 Dec -2.8 16:41:51 10° W 16:45:06 48° SSW 16:48:21 10° SE visible
03 Dec -0.8 18:19:43 10° WSW 18:21:15 13° SW 18:22:32 11° SSW visible
04 Dec -1.0 17:30:33 10° W 17:32:57 18° SW 17:35:21 10° S visible
05 Dec -1.5 16:41:43 10° W 16:44:34 26° SSW 16:47:25 10° SSE visible
07 Dec -0.5 16:42:00 10° WSW 16:43:42 13° SW 16:45:25 10° S visible
